Weather History for Knox, IN

Change the Weather History Date:

Friday, December 7, 2012

  Actual Average (KVPZ) Record (KVPZ)
Temperature  
Mean Temperature 42 °F 31 °F  
Max Temperature 45 °F 37 °F 58 °F (2004)
Min Temperature 40 °F 24 °F -3 °F (2005)
Degree Days  
Heating Degree Days 22 34  
Month to date heating degree days 231  
Since 1 July heating degree days 1489  
Cooling Degree Days 0 0  
Month to date cooling degree days 0  
Year to date cooling degree days 713  
Moisture  
Dew Point 42 °F    
Average Humidity 96    
Maximum Humidity 99    
Minimum Humidity 89    
Precipitation  
Precipitation 0.00 in 0.09 in 0.86 in (2004)
Month to date precipitation 0.61  
Year to date precipitation 35.94  
Sea Level Pressure  
Sea Level Pressure 29.90 in    
Wind  
Wind Speed 3 mph (NE)    
Max Wind Speed 9 mph    
Max Gust Speed -    
Visibility 4 miles    
Events      
T = Trace of Precipitation, MM = Missing Value Source: NWS Daily Summary

Daily Weather History Graph

Daily Weather History Graph

Search for Another Location

Airport:

Trip Planner

Search our weather history database for the weather conditions in past years. The results will help you decide how hot, cold, wet, or windy it might be!

Date:

Astronomy

Dec. 07, 2012 Rise Set
Actual Time 6:59 AM CST 4:17 PM CST
Civil Twilight 6:28 AM CST 4:48 PM CST
Nautical Twilight 5:53 AM CST 5:22 PM CST
Astronomical Twilight 5:20 AM CST 5:56 PM CST
Moon 12:14 AM CST (12/7) 12:17 PM CST (12/7)
Length of Visible Light 10h 19m
Length of Day
9h 17m
Last Quarter, 38% of the Moon is Illuminated
Dec 7
Last Quarter
Dec 13
New
Dec 19
First Quarter
Dec 28
Full
Jan 4
Last Quarter

Hourly Weather History & Observations

Time (CST) Temp. Windchill Dew Point Humidity Pressure Visibility Wind Dir Wind Speed Gust Speed Precip Events Conditions
12:15 AM 41.0 °F 39.0 °F 38.5 °F 91% 29.95 in 10.0 mi West 3.5 mph - N/A   Overcast
12:35 AM 41.4 °F 39.4 °F 38.5 °F 89% 29.95 in 10.0 mi WSW 3.5 mph - N/A   Overcast
12:55 AM 41.2 °F 39.2 °F 38.7 °F 91% 29.94 in 10.0 mi SSW 3.5 mph - N/A   Overcast
1:15 AM 41.2 °F - 38.7 °F 91% 29.93 in 10.0 mi Calm Calm - N/A   Overcast
1:35 AM 41.2 °F 38.2 °F 38.8 °F 91% 29.93 in 10.0 mi South 4.6 mph - N/A   Overcast
1:55 AM 41.0 °F 38.0 °F 38.7 °F 91% 29.93 in 10.0 mi South 4.6 mph - N/A   Overcast
2:15 AM 41.2 °F 38.2 °F 38.5 °F 90% 29.93 in 10.0 mi SSW 4.6 mph - N/A   Overcast
2:35 AM 41.0 °F 38.0 °F 38.7 °F 91% 29.93 in 10.0 mi SSW 4.6 mph - N/A   Overcast
2:55 AM 41.0 °F 37.1 °F 38.7 °F 91% 29.92 in 10.0 mi SSW 5.8 mph - N/A   Overcast
3:15 AM 41.2 °F - 38.7 °F 91% 29.92 in 10.0 mi Calm Calm - N/A   Overcast
3:35 AM 41.0 °F - 38.7 °F 91% 29.92 in 10.0 mi Calm Calm - N/A   Mostly Cloudy
3:55 AM 40.6 °F 37.5 °F 38.5 °F 92% 29.92 in 10.0 mi SSW 4.6 mph - N/A   Mostly Cloudy
4:15 AM 40.5 °F 37.3 °F 38.8 °F 94% 29.93 in 10.0 mi WSW 4.6 mph - N/A   Overcast
4:35 AM 41.0 °F 38.0 °F 39.2 °F 93% 29.93 in 7.0 mi SSW 4.6 mph - N/A   Overcast
4:55 AM 41.2 °F 39.2 °F 39.4 °F 93% 29.92 in 7.0 mi SW 3.5 mph - N/A   Overcast
5:15 AM 41.7 °F 38.8 °F 39.9 °F 93% 29.93 in 7.0 mi SW 4.6 mph - N/A   Overcast
5:35 AM 41.5 °F 37.8 °F 40.3 °F 95% 29.93 in 7.0 mi SW 5.8 mph - N/A   Overcast
5:55 AM 41.5 °F - 40.5 °F 96% 29.93 in 7.0 mi Calm Calm - N/A   Overcast
6:15 AM 41.7 °F - 40.5 °F 95% 29.94 in 5.0 mi Calm Calm - N/A   Overcast
6:35 AM 41.7 °F 39.8 °F 40.8 °F 97% 29.94 in 4.0 mi South 3.5 mph - N/A   Overcast
6:55 AM 41.7 °F 39.8 °F 41.0 °F 97% 29.94 in 3.0 mi SSW 3.5 mph - N/A   Overcast
7:15 AM 41.4 °F - 40.8 °F 98% 29.94 in 3.0 mi Calm Calm - N/A   Overcast
7:35 AM 41.2 °F - 40.6 °F 98% 29.94 in 1.2 mi Calm Calm - N/A   Overcast
7:55 AM 41.2 °F - 40.8 °F 99% 29.94 in 1.2 mi Calm Calm - N/A   Overcast
8:15 AM 41.4 °F - 41.0 °F 99% 29.95 in 1.2 mi Calm Calm - N/A   Overcast
8:35 AM 41.5 °F - 41.2 °F 99% 29.95 in 1.5 mi Calm Calm - N/A   Overcast
8:55 AM 42.1 °F - 41.5 °F 98% 29.95 in 2.0 mi Calm Calm - N/A   Overcast
9:15 AM 42.4 °F - 41.9 °F 98% 29.95 in 2.5 mi Calm Calm - N/A   Overcast
9:35 AM 43.0 °F - 42.4 °F 98% 29.95 in 2.5 mi Calm Calm - N/A   Overcast
9:55 AM 43.3 °F - 42.6 °F 97% 29.95 in 2.5 mi Calm Calm - N/A   Overcast
10:15 AM 43.7 °F - 42.8 °F 97% 29.95 in 2.5 mi Calm Calm - N/A   Overcast
10:35 AM 43.9 °F - 43.0 °F 97% 29.94 in 2.5 mi Calm Calm - N/A   Overcast
10:55 AM 44.6 °F - 43.5 °F 96% 29.93 in 3.0 mi Calm Calm - N/A   Overcast
11:15 AM 45.1 °F 42.8 °F 43.7 °F 95% 29.92 in 4.0 mi NE 4.6 mph - N/A   Overcast
11:35 AM 45.0 °F 43.5 °F 43.7 °F 95% 29.91 in 4.0 mi ENE 3.5 mph - N/A   Overcast
12:15 PM 45.5 °F 42.5 °F 43.7 °F 93% 29.90 in 5.0 mi East 5.8 mph - N/A   Overcast
12:35 PM 45.7 °F 43.4 °F 43.5 °F 92% 29.90 in 7.0 mi East 4.6 mph - N/A   Overcast
1:15 PM 45.7 °F 43.4 °F 43.7 °F 93% 29.89 in 4.0 mi SE 4.6 mph - N/A   Overcast
1:35 PM 45.5 °F 44.2 °F 43.7 °F 93% 29.89 in 4.0 mi SE 3.5 mph - N/A   Overcast
1:55 PM 45.5 °F - 43.7 °F 93% 29.89 in 4.0 mi Calm Calm - N/A   Overcast
2:15 PM 45.7 °F - 43.7 °F 93% 29.89 in 4.0 mi Calm Calm - N/A   Overcast
2:35 PM 45.5 °F - 43.7 °F 93% 29.88 in 4.0 mi Calm Calm - N/A   Overcast
3:15 PM 45.1 °F 43.7 °F 43.9 °F 95% 29.89 in 2.5 mi NNE 3.5 mph - N/A   Overcast
3:35 PM 44.8 °F 43.3 °F 43.9 °F 97% 29.88 in 2.5 mi NNE 3.5 mph - N/A   Overcast
3:55 PM 44.8 °F 43.3 °F 43.9 °F 97% 29.89 in 2.0 mi NNE 3.5 mph - N/A   Overcast
4:15 PM 44.6 °F - 43.7 °F 97% 29.89 in 1.8 mi Calm Calm - N/A   Overcast
4:35 PM 44.6 °F 43.1 °F 43.7 °F 97% 29.88 in 2.5 mi NNE 3.5 mph - N/A   Overcast
4:55 PM 44.2 °F 40.3 °F 43.7 °F 98% 29.88 in 3.0 mi NNE 6.9 mph - N/A   Overcast
5:15 PM 43.9 °F 39.3 °F 43.3 °F 98% 29.88 in 3.0 mi NNE 8.1 mph - N/A   Overcast
5:35 PM 43.9 °F 39.3 °F 43.2 °F 97% 29.87 in 3.0 mi NNE 8.1 mph - N/A   Overcast
5:55 PM 43.7 °F 39.7 °F 43.0 °F 97% 29.87 in 3.0 mi NNE 6.9 mph - N/A   Overcast
6:15 PM 43.7 °F 38.6 °F 43.0 °F 97% 29.87 in 3.0 mi NNE 9.2 mph - N/A   Overcast
6:35 PM 43.7 °F 39.7 °F 42.8 °F 97% 29.87 in 3.0 mi NE 6.9 mph - N/A   Overcast
6:55 PM 43.7 °F 40.3 °F 42.8 °F 97% 29.87 in 2.5 mi NNE 5.8 mph - N/A   Overcast
7:15 PM 43.3 °F 39.2 °F 42.8 °F 98% 29.86 in 2.5 mi NE 6.9 mph - N/A   Overcast
7:35 PM 43.3 °F 39.9 °F 42.8 °F 98% 29.86 in 2.5 mi NE 5.8 mph - N/A   Overcast
7:55 PM 43.3 °F 40.7 °F 42.8 °F 98% 29.86 in 2.5 mi NE 4.6 mph - N/A   Overcast
8:15 PM 43.3 °F 40.7 °F 42.8 °F 98% 29.86 in 2.0 mi NE 4.6 mph - N/A   Overcast
8:35 PM 43.2 °F 40.5 °F 42.8 °F 99% 29.86 in 2.0 mi ENE 4.6 mph - N/A   Overcast
8:55 PM 43.0 °F 41.3 °F 42.8 °F 99% 29.86 in 2.5 mi NNE 3.5 mph - N/A   Overcast
9:15 PM 43.0 °F 41.3 °F 42.8 °F 99% 29.86 in 2.0 mi NE 3.5 mph - N/A   Overcast
9:55 PM 43.0 °F - 42.8 °F 99% 29.86 in 2.0 mi Calm Calm - N/A   Overcast
10:15 PM 43.0 °F 41.3 °F 42.8 °F 99% 29.86 in 1.8 mi NNW 3.5 mph - N/A   Overcast
10:35 PM 43.0 °F 41.3 °F 42.8 °F 99% 29.85 in 1.8 mi North 3.5 mph - N/A   Overcast
10:55 PM 43.0 °F - 42.8 °F 99% 29.85 in 2.0 mi Calm Calm - N/A   Overcast
11:15 PM 43.0 °F 40.3 °F 42.6 °F 99% 29.84 in 2.0 mi ENE 4.6 mph - N/A   Overcast
11:35 PM 42.8 °F 39.3 °F 42.4 °F 99% 29.83 in 2.0 mi ENE 5.8 mph - N/A   Overcast
11:55 PM 42.8 °F 40.1 °F 42.4 °F 99% 29.84 in 2.5 mi North 4.6 mph - N/A   Overcast